[[{"header":{"parameterUnit":"m.s-1","parameterCategory":1,"la1":30.2991,"la2":30.254,"lo1":-89.0895,"lo2":-89.0444,"dy":0.0017,"dx":0.0017,"nx":28,"ny":28,"refTime":"2025-09-05T09:00:00:Z","depth":0,"parameterNumber":2,"parameterNumberName":"U-component_of_WINDS"},"data":[0,0,0,0,0,0,0,0,0,0,0,0,0,0,0,0,0,0,0,0,0,0,0,0,0,0,0,0,0,0,0,0,0,0,0,0,0,0,0,0,0,0,0,0,0,0,0,0,0,0,0,0,0,0,0,0,0,0,-0.862,-0.8619,0,-0.8474,-0.8472,-0.847,-0.8389,-0.8389,-0.8389,-0.8389,-0.8236,-0.8233,-0.8229,0,0,0,0,0,0,0,0,0,0,0,0,0,-0.883,-0.8826,-0.862,-0.8618,-0.8617,-0.8474,-0.8472,-0.847,-0.8389,-0.8389,-0.8389,-0.8389,-0.8238,-0.8233,-0.8228,0,0,0,0,0,0,0,0,0,0,0,0,0,-0.8716,-0.8825,-0.8621,-0.8559,-0.8552,-0.8474,-0.8472,-0.8469,-0.8389,-0.8389,-0.8389,-0.8388,-0.8239,-0.8234,-0.8228,-0.8199,0,0,-0.821,-0.8208,0,0,0,0,0,0,0,0,-0.8723,-0.8709,-0.857,-0.8563,-0.8555,-0.8449,-0.849,-0.8379,-0.8389,-0.8451,-0.8389,-0.8388,-0.8307,-0.8296,-0.8269,-0.8192,-0.8185,-0.821,-0.8206,-0.8204,-0.8202,0,0,0,0,0,0,0,-0.8731,-0.8715,-0.8562,-0.8568,-0.8559,-0.8539,-0.8522,-0.8468,-0.8383,-0.8446,-0.844,-0.8423,-0.8303,-0.8275,-0.8265,-0.8183,-0.821,-0.8205,-0.8201,-0.8199,-0.8076,-0.8076,0,0,0,0,0,0,-0.8749,-0.8722,-0.8567,-0.8558,-0.864,-0.8535,-0.8517,-0.8484,-0.8383,-0.8368,-0.8424,-0.842,-0.8285,-0.8272,-0.8259,-0.8219,-0.8204,-0.8198,-0.8195,-0.8076,-0.8076,-0.8076,0,0,0,0,0,0,-0.8754,-0.8736,-0.8573,-0.8638,-0.8616,-0.8532,-0.8496,-0.8481,-0.8453,-0.8367,-0.8351,-0.8411,-0.8284,-0.8267,-0.8215,-0.8213,-0.8196,-0.8191,-0.8076,-0.8076,-0.8076,-0.814,0,0,0,0,0,0,-0.876,-0.8738,-0.8726,-0.8638,-0.8613,-0.8531,-0.8495,-0.8478,-0.8443,-0.8437,-0.835,-0.8335,-0.8283,-0.8224,-0.8209,-0.8205,-0.8186,-0.8075,-0.8076,-0.8076,-0.8137,-0.8142,-0.8146,0,0,0,0,0,-0.8768,-0.8749,-0.8726,-0.8708,-0.8596,-0.8531,-0.8516,-0.8457,-0.8443,-0.8431,-0.8376,-0.8338,-0.8216,-0.8219,-0.8202,-0.8196,-0.8075,-0.8076,-0.8076,-0.8135,-0.8141,-0.8146,0,0,0,0,0,0,-0.8837,-0.8736,-0.8709,-0.8662,-0.8606,-0.8518,-0.85,-0.8465,-0.8411,-0.8407,-0.8335,-0.8316,-0.827,-0.8228,-0.8233,-0.8163,-0.8142,-0.8139,-0.8193,-0.8197,-0.8202,-0.8213,-0.8181,0,0,0,0,0,-0.8847,-0.8804,-0.8717,-0.8684,-0.8657,-0.8584,-0.8553,-0.8513,-0.8451,-0.8427,-0.8368,-0.831,-0.8258,-0.8225,-0.8173,-0.8131,-0.8111,-0.8119,-0.8123,-0.8127,-0.8125,-0.8101,-0.8103,-0.8078,-0.8078,-0.8078,0,0,-0.8867,-0.8807,-0.8783,-0.8696,-0.8648,-0.8604,-0.8564,-0.8519,-0.8486,-0.842,-0.8367,-0.8322,-0.8252,-0.8205,-0.8182,-0.8168,-0.8128,-0.8128,-0.8131,-0.8127,-0.8101,-0.8104,-0.8106,-0.8078,-0.8078,-0.8078,0,0,-0.8881,-0.8831,-0.8797,-0.8751,-0.8679,-0.863,-0.8623,-0.854,-0.8508,-0.8455,-0.8404,-0.8364,-0.8276,-0.8229,-0.8193,-0.8192,-0.8155,-0.8177,-0.82,-0.8177,-0.8179,-0.818,-0.818,-0.8181,-0.8176,-0.8176,-0.8176,0,-0.8914,-0.8846,-0.8785,-0.8743,-0.8707,-0.8646,-0.8613,-0.857,-0.8485,-0.8461,-0.8448,-0.8338,-0.8286,-0.8228,-0.8228,-0.8201,-0.819,-0.8186,-0.8184,-0.8184,-0.8185,-0.8184,-0.8184,-0.8179,-0.8178,-0.8178,-0.8178,0,-0.8891,-0.8845,-0.8827,-0.8748,-0.8709,-0.8672,-0.8605,-0.8573,-0.8537,-0.849,-0.8437,-0.8373,-0.8308,-0.8291,-0.8254,-0.8228,-0.8222,-0.8198,-0.8174,-0.8191,-0.8189,-0.8188,-0.8183,-0.8182,-0.8181,-0.818,0,0,-0.8942,-0.8831,-0.8825,-0.8789,-0.8707,-0.867,-0.863,-0.8567,-0.8542,-0.8486,-0.8451,-0.838,-0.8357,-0.8317,-0.8274,-0.8254,-0.8258,-0.8232,-0.8229,-0.8239,-0.8226,-0.8245,-0.8246,-0.8234,-0.8234,-0.8233,-0.8232,0,-0.8944,-0.887,-0.8815,-0.8762,-0.8719,-0.8663,-0.8628,-0.8574,-0.853,-0.8487,-0.8438,-0.8389,-0.8362,-0.8338,-0.8316,-0.8262,-0.8254,-0.8262,-0.82,-0.8199,-0.8219,-0.8244,-0.8264,-0.8265,-0.8231,-0.8231,-0.823,0,-0.8935,-0.8883,-0.8826,-0.875,-0.873,-0.87,-0.8639,-0.8598,-0.8536,-0.8506,-0.8463,-0.8419,-0.8375,-0.8357,-0.8295,-0.8302,-0.8274,-0.8244,-0.8243,-0.8234,-0.8215,-0.8236,-0.8264,-0.8265,-0.8228,-0.8229,-0.8229,0,-0.8978,-0.8893,-0.8849,-0.882,-0.8729,-0.871,-0.8671,-0.8609,-0.8575,-0.8522,-0.8499,-0.8441,-0.841,-0.8366,-0.8308,-0.83,-0.8253,-0.823,-0.8226,-0.8227,-0.8217,-0.8218,-0.8241,-0.82,-0.82,-0.82,-0.82,0,-0.8986,-0.8953,-0.8867,-0.884,-0.8803,-0.874,-0.8704,-0.8661,-0.8606,-0.857,-0.8517,-0.8484,-0.841,-0.8368,-0.8322,-0.8279,-0.8264,-0.8238,-0.8226,-0.8243,-0.8246,-0.8222,-0.8221,-0.82,-0.82,-0.82,-0.82,0,-0.9027,-0.8968,-0.8916,-0.8836,-0.8815,-0.8791,-0.8722,-0.8693,-0.8648,-0.8602,-0.8588,-0.8515,-0.8463,-0.8401,-0.8329,-0.8298,-0.8258,-0.8241,-0.828,-0.8273,-0.8273,-0.8274,-0.828,-0.8278,-0.824,-0.824,-0.8241,0,-0.9035,-0.9009,-0.8927,-0.8899,-0.8862,-0.8818,-0.8784,-0.8722,-0.8688,-0.8617,-0.8597,-0.8541,-0.8493,-0.8413,-0.8353,-0.8298,-0.8278,-0.8285,-0.827,-0.8287,-0.8278,-0.8281,-0.8278,-0.8289,-0.8289,-0.829,-0.829,0,-0.9056,-0.9029,-0.8982,-0.8926,-0.8887,-0.8839,-0.8789,-0.877,-0.8697,-0.8663,-0.8609,-0.8572,-0.8499,-0.8445,-0.8382,-0.8342,-0.8304,-0.8296,-0.8292,-0.8308,-0.8332,-0.8319,-0.8291,-0.8296,-0.8295,-0.8295,-0.8295,-0.8294,-0.908,-0.9055,-0.8994,-0.8944,-0.8901,-0.8856,-0.8826,-0.8777,-0.8732,-0.8668,-0.8634,-0.8582,-0.8521,-0.8434,-0.8396,-0.8354,-0.834,-0.8335,-0.8333,-0.8333,-0.8338,-0.834,-0.8342,-0.8342,-0.8341,-0.8341,-0.8341,0,-0.9098,-0.9057,-0.9012,-0.8945,-0.8906,-0.8876,-0.8819,-0.8789,-0.8744,-0.8691,-0.8646,-0.8585,-0.8533,-0.847,-0.8414,-0.8392,-0.8374,-0.8379,-0.838,-0.8371,-0.8353,-0.8362,-0.8395,-0.8395,-0.8395,-0.8395,-0.8395,-0.8395,-0.9103,-0.906,-0.9026,-0.896,-0.8918,-0.8868,-0.8838,-0.8797,-0.8755,-0.869,-0.8647,-0.8607,-0.8551,-0.849,-0.844,-0.8423,-0.8405,-0.8416,-0.8394,-0.8377,-0.8373,-0.8368,-0.8376,-0.8412,-0.8412,-0.8416,-0.8416,-0.8416]},{"header":{"parameterUnit":"m.s-1","parameterCategory":1,"la1":30.2991,"la2":30.254,"lo1":-89.0895,"lo2":-89.0444,"dy":0.0017,"dx":0.0017,"nx":28,"ny":28,"refTime":"2025-09-05T09:00:00:Z","depth":0,"parameterNumber":3,"parameterNumberName":"V-component_of_WINDS"},"data":[0,0,0,0,0,0,0,0,0,0,0,0,0,0,0,0,0,0,0,0,0,0,0,0,0,0,0,0,0,0,0,0,0,0,0,0,0,0,0,0,0,0,0,0,0,0,0,0,0,0,0,0,0,0,0,0,0,0,2.1136,2.1135,0,2.1056,2.1055,2.1054,2.1076,2.1078,2.1079,2.1081,2.0992,2.0988,2.0984,0,0,0,0,0,0,0,0,0,0,0,0,0,2.1301,2.1297,2.1136,2.1135,2.1134,2.1056,2.1055,2.1054,2.1076,2.1078,2.108,2.1082,2.0993,2.0989,2.0984,0,0,0,0,0,0,0,0,0,0,0,0,0,2.1225,2.1296,2.1136,2.1136,2.1135,2.1056,2.1055,2.1053,2.1075,2.1078,2.108,2.1083,2.0995,2.0989,2.0983,2.0898,0,0,2.0965,2.0963,0,0,0,0,0,0,0,0,2.123,2.1219,2.1137,2.1135,2.1134,2.1079,2.108,2.1001,2.1075,2.1098,2.1081,2.1084,2.1018,2.1011,2.099,2.0894,2.089,2.0965,2.0961,2.0959,2.0957,0,0,0,0,0,0,0,2.1235,2.1223,2.1104,2.1135,2.1134,2.1137,2.1129,2.1065,2.1045,2.1096,2.1097,2.1088,2.1018,2.0996,2.0988,2.0889,2.0965,2.096,2.0956,2.0954,2.0717,2.0714,0,0,0,0,0,0,2.1242,2.1227,2.1106,2.1101,2.1189,2.1132,2.1123,2.1094,2.1046,2.1041,2.1086,2.1089,2.1004,2.0995,2.0985,2.0881,2.0959,2.0953,2.095,2.072,2.0716,2.0713,0,0,0,0,0,0,2.1245,2.1231,2.111,2.1165,2.115,2.1127,2.1093,2.1091,2.1069,2.1038,2.1034,2.1067,2.1006,2.0993,2.092,2.0878,2.0951,2.0945,2.0723,2.0719,2.0715,2.0672,0,0,0,0,0,0,2.125,2.1232,2.1201,2.1164,2.1147,2.1047,2.1091,2.1088,2.1059,2.1063,2.102,2.1015,2.1007,2.0928,2.0914,2.0871,2.0941,2.0726,2.0721,2.0716,2.0677,2.0667,2.0658,0,0,0,0,0,2.1256,2.1191,2.1199,2.1184,2.1108,2.1045,2.1035,2.1029,2.1056,2.1023,2.1004,2.1016,2.0886,2.0921,2.0904,2.0859,2.0729,2.0722,2.0716,2.0681,2.0669,2.0659,0,0,0,0,0,0,2.122,2.1186,2.1195,2.1116,2.1084,2.1049,2.1007,2.1017,2.0974,2.0979,2.0972,2.0961,2.0886,2.0866,2.0905,2.0774,2.0811,2.0801,2.0789,2.0778,2.0768,2.0774,2.0936,0,0,0,0,0,2.1204,2.1159,2.113,2.1063,2.1047,2.103,2.1002,2.1001,2.0966,2.0952,2.0927,2.089,2.0841,2.0809,2.0762,2.0675,2.0665,2.0636,2.0627,2.0619,2.061,2.0561,2.0548,2.0693,2.0693,2.0693,0,0,2.1169,2.1144,2.1115,2.1056,2.103,2.0981,2.1018,2.0964,2.0927,2.0943,2.0872,2.0853,2.0811,2.0731,2.0694,2.0711,2.0568,2.0611,2.0606,2.06,2.0553,2.054,2.0528,2.0688,2.0689,2.069,0,0,2.1078,2.1057,2.0998,2.0973,2.0935,2.0924,2.091,2.0874,2.0862,2.0792,2.0803,2.0757,2.0673,2.0643,2.0616,2.0516,2.0525,2.0501,2.0451,2.0404,2.0392,2.0382,2.0344,2.0331,2.0492,2.0492,2.0492,0,2.1038,2.0967,2.0966,2.0912,2.0884,2.09,2.0839,2.0813,2.0761,2.074,2.0762,2.0656,2.063,2.0542,2.0517,2.0496,2.0478,2.0505,2.0394,2.0384,2.0374,2.0338,2.0324,2.0489,2.049,2.049,2.049,0,2.0918,2.0868,2.0825,2.0777,2.0745,2.0688,2.0676,2.0643,2.0645,2.0632,2.0559,2.0528,2.0475,2.0454,2.0455,2.0366,2.0378,2.0397,2.0433,2.0358,2.0324,2.031,2.0485,2.0486,2.0487,2.0488,0,0,2.0801,2.0755,2.0739,2.0717,2.0677,2.0637,2.058,2.053,2.0501,2.0465,2.0415,2.0344,2.0362,2.0332,2.0329,2.0288,2.0208,2.0312,2.031,2.0292,2.0106,2.009,2.0074,2.0215,2.0212,2.021,2.0109,0,2.0706,2.0608,2.0606,2.0515,2.0468,2.0482,2.0432,2.0401,2.0387,2.0343,2.0327,2.0276,2.0304,2.0286,2.0246,2.0226,2.017,2.0234,2.0166,2.0163,2.0174,2.0057,2.004,1.9946,2.0096,2.0093,2.0092,0,2.0582,2.0544,2.0448,2.0415,2.0395,2.0351,2.0305,2.0264,2.0228,2.022,2.0188,2.0192,2.0131,2.0172,2.0087,2.013,2.0102,2.0088,2.0084,2.0076,2.0121,2.0043,1.9916,1.9901,2.0071,2.0073,2.0074,0,2.0503,2.0429,2.0362,2.0343,2.0303,2.0271,2.0252,2.0219,2.0189,2.0149,2.0129,2.0081,2.0054,2.0016,2.0006,2.0037,1.992,1.996,1.991,1.991,1.9882,1.9884,1.9747,1.9868,1.9869,1.9869,1.9869,0,2.0396,2.0336,2.0326,2.0285,2.0218,2.0216,2.0149,2.0133,2.0103,2.0057,2.0067,2.0023,2.0014,1.9967,1.9959,1.9889,1.9877,1.9867,1.9865,1.9865,1.9866,1.9845,1.985,1.9865,1.9866,1.9867,1.9867,0,2.0296,2.0287,2.0215,2.0184,2.0175,2.0127,2.0099,2.0058,2.0047,1.9988,1.9974,1.9954,1.99,1.9888,1.9822,1.9817,1.9733,1.9738,1.9746,1.9745,1.9695,1.9699,1.9537,1.9515,1.9654,1.9652,1.9651,0,2.0227,2.0182,2.0147,2.0118,2.0098,2.0052,2.0022,2.0018,1.9986,1.9943,1.9906,1.9854,1.9812,1.9724,1.9703,1.9653,1.9656,1.9603,1.9648,1.9649,1.9652,1.9654,1.9649,1.9593,1.9591,1.959,1.9589,0,2.0104,2.0103,2.0061,2.0017,1.9982,1.9947,1.9913,1.9888,1.988,1.9843,1.979,1.9757,1.9692,1.9639,1.9589,1.9567,1.9575,1.9576,1.9561,1.9559,1.9564,1.9559,1.972,1.9579,1.958,1.9581,1.9581,1.9582,2.0016,1.9977,1.9946,1.9899,1.9874,1.9842,1.9802,1.9787,1.9743,1.9691,1.9691,1.9632,1.9596,1.9531,1.9506,1.9459,1.9474,1.9454,1.9448,1.9442,1.9437,1.9574,1.945,1.945,1.945,1.945,1.9451,0,1.9892,1.9874,1.9831,1.9785,1.9747,1.9762,1.9726,1.9693,1.9641,1.9609,1.9568,1.9505,1.9454,1.943,1.9379,1.9345,1.9347,1.9331,1.9332,1.9327,1.9426,1.9443,1.933,1.933,1.933,1.933,1.933,1.933,1.9823,1.9757,1.9751,1.9672,1.9653,1.9597,1.9575,1.9545,1.952,1.945,1.9409,1.9395,1.9365,1.9312,1.9265,1.9259,1.9238,1.922,1.9215,1.9308,1.932,1.9332,1.9348,1.9216,1.9216,1.912,1.9119,1.9118]}]]